Regional Weather Roundup
Issued by NWS

Home | Current Version | Previous Version | Graphics & Text | Print | Product List | Glossary On
Versions: 1 2 3 4 5 6 7 8 9 10 11 12 13 14 15 16 17 18 19 20 21 22 23 24 25 26 27 28 29 30 31 32 33 34 35 36 37 38 39 40 41 42 43 44 45 46 47 48 49 50
000
ASUS43 KMPX 290010
RWRMN
WEATHER ROUNDUP FOR MINNESOTA
NATIONAL WEATHER SERVICE TWIN CITIES/CHANHASSEN MN
700 PM CDT MON JUL 28 2014


NOTE: "FAIR" INDICATES FEW OR NO CLOUDS BELOW 12,000 FEET WITH NO
SIGNIFICANT WEATHER AND/OR OBSTRUCTIONS TO VISIBILITY. N/A MEANS
CURRENT SKY AND/OR WEATHER CONDITIONS ARE NOT AVAILABLE.

MNZ060>063-068>070-290100-
   Twin Cities Metro

CITY           SKY/WX    TMP DP  RH WIND       PRES   REMARKS
TWIN CITIES    MOSUNNY   75  52  44 NW12      30.13F
6HR MIN TEMP:  73; 6HR MAX TEMP:  77;

ST PAUL        SUNNY     74  51  44 N6        30.13F
CRYSTAL        SUNNY     76  50  40 NW8       30.12F
BLAINE         MOSUNNY   75  54  46 NW10      30.13F
LAKEVILLE      CLOUDY    72  54  53 W8        30.14S
EDEN PRAIRIE   PTSUNNY   75  54  47 NW10      30.13F
6HR MIN TEMP:  71; 6HR MAX TEMP:  77;

SOUTH ST PAUL  SUNNY     73  50  43 N3        30.12F
LAKE ELMO      FAIR      72  54  53 N5        30.14F
$$
MNZ001>005-007-008-013>017-022>024-027-028-290100-
   Northwest Minnesota

CITY           SKY/WX    TMP DP  RH WIND       PRES   REMARKS
BEMIDJI        SUNNY     71  53  52 W9        30.17F
HALLOCK        SUNNY     73  54  49 W8        30.18F
ROSEAU           N/A     73  57  56 W12       30.16F
WARROAD        MOSUNNY   75  59  57 W8        30.16S
THIEF RVR FALL MOSUNNY   72  55  56 W7        30.19F
CROOKSTON      SUNNY     72  55  56 NW8       30.20S
FOSSTON        SUNNY     72  54  53 NW6       30.20F
DETROIT LAKES  SUNNY     70  50  49 NW7       30.21F
MOORHEAD       MOSUNNY   72  55  56 NW3       30.21F
PARK RAPIDS    MOSUNNY   71  51  49 NW12      30.18F
$$
MNZ006-009>011-018-025>026-290100-
   North Central Minnesota

CITY           SKY/WX    TMP DP  RH WIND       PRES   REMARKS
BAUDETTE       SUNNY     73  56  54 NW5       30.16F
FLAG ISLAND    SUNNY     73  54  49 NW8       30.13S
INTL FALLS     SUNNY     72  55  55 NW9       30.12S
6HR MIN TEMP:  72; 6HR MAX TEMP:  76;

WASKISH        SUNNY     73  55  53 CALM      30.15F
BIG FORK       SUNNY     73  54  49 NW3       30.14S
LONGVILLE      SUNNY     72  54  53 NW6       30.16S
GRAND RAPIDS   SUNNY     72  52  49 NW9G16    30.14S
CRANE LAKE     SUNNY     72  55  56 NW3       30.12S
ORR            SUNNY     72  52  49 NW8       30.10S
COOK           SUNNY     72  54  53 NW5       30.13R
$$
MNZ012-019>021-037-290100-
   Northeast Minnesota

CITY           SKY/WX    TMP DP  RH WIND       PRES   REMARKS
DULUTH         MOSUNNY   72  53  51 NW8       30.10F
6HR MIN TEMP:  70; 6HR MAX TEMP:  75;

ELY            SUNNY     70  54  56 NW7       30.10S
HIBBING        SUNNY     73  53  49 N10       30.12F
EVELETH        MOSUNNY   72  54  53 NW5       30.12S
DULUTH HARBOR  SUNNY     73  57  56 NW7       30.08F
TWO HARBORS    SUNNY     72  54  53 W3        30.07S
SILVER BAY     SUNNY     72  59  64 CALM      30.06S
GRAND MARAIS     N/A     60  52  74 CALM      30.02F
G MARAIS ARPRT MOSUNNY   66  52  59 NW8       30.07F
$$
MNZ029>031-032-039>041-046>048-054>057-064-290100-
   West Central Minnesota

CITY           SKY/WX    TMP DP  RH WIND       PRES   REMARKS
FERGUS FALLS   SUNNY     70  48  46 NW8       30.20S
WHEATON        SUNNY     68  54  60 W6        30.23S
MORRIS         SUNNY     72  55  56 NW7       30.20F
ALEXANDRIA     MOSUNNY   72  51  47 NW13      30.20F
ELBOW LAKE     FAIR      69  54  59 NW8       30.20F
WADENA         SUNNY     70  54  56 NW8       30.18F
GLENWOOD       SUNNY     72  52  49 NW10      30.20F
APPLETON       SUNNY     72  52  49 NW8       30.20F
BENSON         SUNNY     72  54  53 N9        30.19F
ORTONVILLE     SUNNY     70  52  52 N8        30.21F
MADISON        SUNNY     72  54  53 NW8       30.21F
WILLMAR        FAIR      73  52  46 NW9       30.20S
$$
MNZ033>034-036-042>043-049>051-058-059-290100-
   Central Minnesota

CITY           SKY/WX    TMP DP  RH WIND       PRES   REMARKS
ST CLOUD       SUNNY     75  54  47 N9        30.15F
6HR MIN TEMP:  73; 6HR MAX TEMP:  79;

SAUK CENTRE    FAIR      72  53  50 NW10      30.18F
PAYNESVILLE    PTSUNNY   71  51  49 W9        30.18F
AITKIN         MOSUNNY   73  57  56 NW3       30.13F
PINE RIVER     SUNNY     73  54  49 N8        30.18F
BRAINERD       SUNNY     72  52  49 N8        30.15F
STAPLES        MOSUNNY   70  52  52 NW8       30.17F
LONG PRAIRIE   PTSUNNY   70  54  56 W8        30.18F
LITTLE FALLS   SUNNY     72  52  49 NW3       30.16F
LITCHFIELD     PTSUNNY   73  55  53 NW6       30.17F
BUFFALO        PTSUNNY   73  51  44 W8        30.15F
MAPLE LAKE     MOSUNNY   74  55  52 NW5       30.16F
$$
MNZ037-044-045-052-053-290100-
   East Central Minnesota

CITY           SKY/WX    TMP DP  RH WIND       PRES   REMARKS
PRINCETON      MOSUNNY   73  55  53 N5        30.14F
MORA           MOSUNNY   70  52  52 NW8       30.15F
CAMBRIDGE      SUNNY     75  55  50 NW6       30.12F
RUSH CITY      SUNNY     72  54  53 NW3       30.13F
MOOSE LAKE     MOSUNNY   72  54  53 NW5       30.10F
HINCKLEY       FAIR      72  55  56 NW5       30.13S
CLOQUET        SUNNY     72  52  49 NW6       30.11F
MCGREGOR       SUNNY     72  54  53 NW7       30.14S
$$
MNZ071>073-080-081-089-090-097-098-290100-
   Southwest Minnesota

CITY           SKY/WX    TMP DP  RH WIND       PRES   REMARKS
MONTEVIDEO     SUNNY     72  54  53 N9        30.20F
GRANITE FALLS  SUNNY     72  52  50 NW7       30.21F
CANBY          SUNNY     71  52  50 N8        30.22F
MARSHALL       SUNNY     72  52  49 NW9       30.20S
REDWOOD FALLS  SUNNY     73  53  49 NW9       30.18F
OLIVIA         MOSUNNY   72  52  49 NW9       30.18S
PIPESTONE      SUNNY     70  52  52 NE8       30.22F
WINDOM         SUNNY     70  54  56 N7        30.20F
WORTHINGTON    SUNNY     70  54  56 N13       30.22F
JACKSON        SUNNY     70  52  52 N5        30.20F
TRACY          SUNNY     71  53  54 N6        30.21F
SLAYTON        SUNNY     69  52  56 CALM      30.23S
$$
MNZ065>067-074>077-082>085-091>093-290100-
   South Central Minnesota

CITY           SKY/WX    TMP DP  RH WIND       PRES   REMARKS
MANKATO        SUNNY     72  52  49 NW8       30.16F
NEW ULM        MOSUNNY   73  54  49 NW7       30.17F
ST JAMES       SUNNY     73  52  46 NW7       30.18F
FAIRMONT       SUNNY     73  52  46 NW9       30.18S
GLENCOE        SUNNY     74  52  46 NW10      30.15F
FARIBAULT      PTSUNNY   75  48  38 W10       30.15F
OWATONNA       SUNNY     72  52  49 NW10      30.16S
WASECA         MOSUNNY   72  52  49 NW6       30.18F
ALBERT LEA     CLOUDY    72  54  53 NW6       30.16F
$$
MNZ078>079-086>088-094>096-290100-
   Southeast Minnesota

CITY           SKY/WX    TMP DP  RH WIND       PRES   REMARKS
ROCHESTER      MOSUNNY   71  53  52 NW7       30.16F
6HR MIN TEMP:  70; 6HR MAX TEMP:  74;

RED WING       SUNNY     75  52  43 CALM      30.12S
STANTON        MOSUNNY   73  53  50 NW6       30.13S
DODGE CENTER   SUNNY     70  54  56 NW6       30.16S
WINONA         SUNNY     73  52  46 NW8       30.12F
AUSTIN         SUNNY     70  54  56 NW6       30.16S
PRESTON        MOSUNNY   68  58  70 N5        30.16S
$$
ABBREVIATIONS USED IN REMARKS
   TC - TEMPERATURES IN CELSIUS
  WCI - WIND CHILL INDEX
   HX - HEAT INDEX
  VSB - VISIBILITY
$$



USA.gov is the U.S. government's official web portal to all federal, state and local government web resources and services.